Weather History for Perry, IA

Change the Weather History Date:

Thursday, January 10, 2013

  Actual Average Record
Temperature  
Mean Temperature 30 °F -  
Max Temperature 36 °F 23 °F 57 °F (2012)
Min Temperature 24 °F 4 °F -22 °F (1982)
Degree Days  
Heating Degree Days 35    
Moisture  
Dew Point 29 °F    
Average Humidity 90    
Maximum Humidity 100    
Minimum Humidity 71    
Precipitation  
Precipitation 0.01 in - - ()
Sea Level Pressure  
Sea Level Pressure 30.03 in    
Wind  
Wind Speed 7 mph (ESE)    
Max Wind Speed 15 mph    
Max Gust Speed -    
Visibility 6 miles    
Events Fog , Rain    
Averages and records for this station are not official NWS values.
T = Trace of Precipitation, MM = Missing Value Source: NWS Daily Summary

Daily Weather History Graph

Daily Weather History Graph

Search for Another Location

Airport:

Trip Planner

Search our weather history database for the weather conditions in past years. The results will help you decide how hot, cold, wet, or windy it might be!

Date:

Astronomy

Jan. 10, 2013 Rise Set
Actual Time 7:43 AM CST 5:05 PM CST
Civil Twilight 7:12 AM CST 5:36 PM CST
Nautical Twilight 6:37 AM CST 6:11 PM CST
Astronomical Twilight 6:04 AM CST 6:44 PM CST
Moon 6:23 AM CST (1/10) 4:14 PM CST (1/10)
Length of Visible Light 10h 24m
Length of Day
9h 22m
Waning Crescent, 2% of the Moon is Illuminated
Jan 10
Waning Crescent
Jan 11
New
Jan 18
First Quarter
Jan 26
Full
Feb 3
Last Quarter

Hourly Weather History & Observations

Time (CST) Temp. Windchill Dew Point Humidity Pressure Visibility Wind Dir Wind Speed Gust Speed Precip Events Conditions
12:15 AM 28.0 °F 24.2 °F 26.1 °F 92% 30.37 in 10.0 mi SSE 3.5 mph - N/A   Clear
12:35 AM 27.1 °F 21.8 °F 25.2 °F 92% 30.36 in 10.0 mi SE 4.6 mph - N/A   Clear
12:55 AM 24.6 °F 16.7 °F 23.2 °F 94% 30.36 in 10.0 mi SSE 6.9 mph - N/A   Clear
2:15 AM 25.7 °F 18.0 °F 23.5 °F 92% 30.35 in 10.0 mi ESE 6.9 mph - N/A   Clear
2:35 AM 25.2 °F 17.3 °F 23.4 °F 93% 30.35 in 10.0 mi SSE 6.9 mph - N/A   Clear
2:55 AM 25.2 °F 18.3 °F 23.9 °F 95% 30.35 in 10.0 mi SE 5.8 mph - N/A   Clear
3:15 AM 27.1 °F 21.8 °F 23.9 °F 88% 30.34 in 10.0 mi SE 4.6 mph - N/A   Clear
3:35 AM 27.0 °F 19.5 °F 22.8 °F 84% 30.33 in 10.0 mi SE 6.9 mph - N/A   Clear
3:55 AM 26.1 °F 19.4 °F 22.5 °F 86% 30.32 in 10.0 mi SE 5.8 mph - N/A   Clear
4:15 AM 26.6 °F 22.6 °F 22.5 °F 84% 30.31 in 10.0 mi ESE 3.5 mph - N/A   Clear
4:35 AM 27.1 °F 18.9 °F 23.2 °F 85% 30.30 in 10.0 mi SSE 8.1 mph - N/A   Clear
4:55 AM 26.6 °F 18.2 °F 22.1 °F 83% 30.29 in 10.0 mi SSE 8.1 mph - N/A   Clear
5:15 AM 27.3 °F 19.9 °F 22.5 °F 82% 30.28 in 10.0 mi SE 6.9 mph - N/A   Clear
5:35 AM 27.0 °F 19.5 °F 22.6 °F 84% 30.27 in 10.0 mi SE 6.9 mph - N/A   Clear
5:55 AM 27.7 °F 21.3 °F 23.4 °F 84% 30.27 in 10.0 mi SE 5.8 mph - N/A   Clear
6:35 AM 27.1 °F 20.7 °F 23.9 °F 88% 30.26 in 10.0 mi East 5.8 mph - N/A   Clear
6:55 AM 27.9 °F 19.8 °F 24.6 °F 88% 30.25 in 10.0 mi East 8.1 mph - N/A   Clear
7:15 AM 27.1 °F 19.7 °F 23.9 °F 88% 30.24 in 10.0 mi East 6.9 mph - N/A   Clear
7:35 AM 26.8 °F 17.7 °F 23.2 °F 86% 30.23 in 10.0 mi East 9.2 mph - N/A   Clear
7:55 AM 26.6 °F 17.5 °F 23.7 °F 89% 30.22 in 10.0 mi ESE 9.2 mph - N/A   Clear
8:35 AM 28.4 °F 20.4 °F 25.5 °F 89% 30.21 in 10.0 mi East 8.1 mph - N/A   Clear
8:55 AM 29.3 °F 20.8 °F 25.7 °F 86% 30.20 in 10.0 mi ESE 9.2 mph - N/A   Clear
9:15 AM 30.0 °F 22.4 °F 26.4 °F 86% 30.19 in 10.0 mi ESE 8.1 mph - N/A   Clear
9:55 AM 31.8 °F 23.9 °F 27.5 °F 84% 30.17 in 10.0 mi ESE 9.2 mph - N/A   Overcast
10:15 AM 32.0 °F 24.2 °F 28.0 °F 85% 30.15 in 10.0 mi East 9.2 mph - N/A   Overcast
10:35 AM 33.1 °F 24.9 °F 29.1 °F 85% 30.13 in 10.0 mi ESE 10.4 mph - N/A   Overcast
10:55 AM 34.0 °F 26.0 °F 29.3 °F 83% 30.11 in 10.0 mi ESE 10.4 mph - N/A   Overcast
11:15 AM 34.3 °F 26.5 °F 29.3 °F 82% 30.09 in 10.0 mi ESE 10.4 mph - N/A   Mostly Cloudy
11:35 AM 34.9 °F 27.1 °F 29.5 °F 81% 30.07 in 10.0 mi ESE 10.4 mph - N/A   Overcast
11:55 AM 35.6 °F 29.2 °F 29.1 °F 77% 30.04 in 10.0 mi ESE 8.1 mph - N/A   Overcast
12:15 PM 36.0 °F 28.5 °F 29.1 °F 76% 30.00 in 10.0 mi East 10.4 mph - N/A   Overcast
12:35 PM 36.9 °F 29.6 °F 28.2 °F 71% 29.98 in 10.0 mi East 10.4 mph - N/A   Overcast
12:55 PM 36.1 °F 28.7 °F 28.4 °F 73% 29.98 in 10.0 mi ESE 10.4 mph - N/A   Overcast
1:15 PM 35.6 °F 28.0 °F 28.9 °F 77% 29.96 in 10.0 mi East 10.4 mph - N/A   Overcast
1:35 PM 35.8 °F 27.3 °F 28.8 °F 76% 29.94 in 10.0 mi East 12.7 mph - N/A   Overcast
1:55 PM 35.6 °F 27.1 °F 29.1 °F 77% 29.93 in 10.0 mi ESE 12.7 mph - N/A   Overcast
2:15 PM 35.2 °F 28.1 °F 29.7 °F 80% 29.93 in 10.0 mi ESE 9.2 mph - N/A   Overcast
2:35 PM 36.1 °F 26.9 °F 32.0 °F 85% 29.92 in 10.0 mi SE 15.0 mph - N/A   Overcast
2:55 PM 35.8 °F 27.3 °F 32.0 °F 86% 29.92 in 10.0 mi SE 12.7 mph - N/A   Light Drizzle
3:15 PM 34.9 °F 27.1 °F 32.9 °F 92% 29.92 in 3.0 mi ESE 10.4 mph - N/A Rain Light Rain
3:35 PM 34.2 °F 27.5 °F 33.1 °F 96% 29.91 in 1.8 mi ESE 8.1 mph - N/A   Overcast
3:55 PM 34.0 °F 26.6 °F 33.3 °F 97% 29.90 in 1.5 mi ESE 9.2 mph - N/A Rain Light Rain
4:15 PM 34.0 °F 27.2 °F 33.4 °F 98% 29.90 in 3.0 mi ESE 8.1 mph - 0.01 in Rain Light Rain
4:35 PM 33.8 °F 27.0 °F 33.6 °F 99% 29.89 in 2.0 mi ESE 8.1 mph - 0.01 in   Overcast
4:55 PM 33.8 °F 27.0 °F 33.4 °F 99% 29.88 in 0.8 mi ESE 8.1 mph - 0.01 in   Overcast
5:15 PM 33.6 °F 26.8 °F 33.3 °F 99% 29.88 in 0.5 mi ESE 8.1 mph - N/A Fog Fog
5:35 PM 33.8 °F 26.4 °F 33.6 °F 99% 29.87 in 0.8 mi ESE 9.2 mph - N/A   Overcast
5:55 PM 34.2 °F 26.8 °F 34.0 °F 99% 29.86 in 1.0 mi SE 9.2 mph - N/A   Overcast
6:15 PM 34.3 °F 26.5 °F 34.2 °F 99% 29.85 in 1.5 mi SE 10.4 mph - N/A   Overcast
6:35 PM 34.7 °F 26.4 °F 34.7 °F 100% 29.84 in 1.2 mi SE 11.5 mph - N/A   Overcast
6:55 PM 34.3 °F 27.0 °F 34.2 °F 99% 29.83 in 1.2 mi SE 9.2 mph - N/A   Overcast
7:15 PM 34.3 °F 26.5 °F 34.2 °F 99% 29.82 in 1.5 mi SE 10.4 mph - N/A   Overcast
7:35 PM 34.3 °F 27.7 °F 34.2 °F 99% 29.81 in 1.5 mi SE 8.1 mph - N/A   Overcast
7:55 PM 34.7 °F 26.9 °F 34.3 °F 99% 29.79 in 2.0 mi SE 10.4 mph - N/A   Overcast
8:15 PM 34.3 °F 27.0 °F 34.2 °F 99% 29.77 in 1.2 mi ESE 9.2 mph - N/A   Overcast
8:35 PM 34.3 °F 28.4 °F 34.2 °F 99% 29.77 in 1.0 mi SE 6.9 mph - N/A   Overcast
8:55 PM 34.0 °F 29.8 °F 33.8 °F 99% 29.75 in 0.5 mi SSE 4.6 mph - N/A Fog Fog
9:15 PM 33.8 °F 29.6 °F 33.8 °F 100% 29.75 in 0.5 mi SSE 4.6 mph - N/A Fog Fog
9:35 PM 33.8 °F 28.6 °F 33.4 °F 99% 29.76 in 0.5 mi SSE 5.8 mph - N/A Fog Fog
9:55 PM 33.6 °F - 33.4 °F 99% 29.76 in 0.5 mi Calm Calm - N/A Fog Fog
10:15 PM 34.0 °F - 33.8 °F 99% 29.76 in 0.5 mi Calm Calm - N/A Fog Fog
10:35 PM 33.8 °F - 33.6 °F 99% 29.74 in 0.5 mi Calm Calm - N/A Fog Fog
10:55 PM 33.8 °F 29.6 °F 33.8 °F 100% 29.73 in 0.5 mi East 4.6 mph - N/A Fog Fog
11:15 PM 33.6 °F - 33.6 °F 100% 29.73 in 0.5 mi Calm Calm - N/A Fog Fog
11:35 PM 33.8 °F - 33.8 °F 100% 29.72 in 0.5 mi Calm Calm - N/A Fog Fog
11:55 PM 33.4 °F 28.1 °F 33.4 °F 100% 29.71 in 0.5 mi East 5.8 mph - N/A Fog Fog